• In Deutschland
  • Länderverzeichnis
  • Für 7 Tage
  • Wassertemperatur
  • Satellitenkarten
  • Wetterkarte
  • Widgets
  • user-avatar
    Anmelden

    Stündliche Wetter Mayrhofen

    Heute, 19 November, Sonntag

    Zeit Temperatur Niederschläge Wind Luftdruck Luftfeuchtigkeit
    00:00 -9°C° 0 mm 2 m/S 613 mmHg 76%
    01:00 -7°C° 0 mm 2 m/S 613 mmHg 74%
    02:00 -7°C° 0,1 mm 2 m/S 613 mmHg 74%
    03:00 -7°C° 0,1 mm 2 m/S 613 mmHg 75%
    04:00 -6°C° 0,1 mm 1 m/S 612 mmHg 76%
    05:00 -4°C° 0,8 mm 1 m/S 612 mmHg 80%
    06:00 -6°C° 0,8 mm 2 m/S 612 mmHg 85%
    07:00 -6°C° 0 mm 2 m/S 612 mmHg 90%
    08:00 -6°C° 0,8 mm 2 m/S 612 mmHg 90%
    09:00 -5°C° 0,8 mm 2 m/S 612 mmHg 90%
    10:00 -4°C° 0,8 mm 2 m/S 613 mmHg 90%
    11:00 -4°C° 0,5 mm 2 m/S 613 mmHg 87%
    12:00 -5°C° 0,5 mm 3 m/S 613 mmHg 85%
    13:00 -4°C° 0 mm 2 m/S 612 mmHg 82%
    14:00 -5°C° 0,5 mm 2 m/S 612 mmHg 84%
    15:00 -5°C° 0,5 mm 2 m/S 613 mmHg 87%
    16:00 -6°C° 0,5 mm 2 m/S 613 mmHg 89%
    17:00 -7°C° 0,3 mm 2 m/S 613 mmHg 90%
    18:00 -7°C° 0,3 mm 2 m/S 613 mmHg 91%
    19:00 -8°C° 0,3 mm 2 m/S 614 mmHg 92%
    20:00 -8°C° 0,2 mm 2 m/S 614 mmHg 93%
    21:00 -8°C° 0,2 mm 2 m/S 614 mmHg 93%
    22:00 -9°C° 0,2 mm 2 m/S 615 mmHg 93%
    23:00 -9°C° 0,1 mm 2 m/S 615 mmHg 93%

    Morgen, 20 November, Montag

    Zeit Temperatur Niederschläge Wind Luftdruck Luftfeuchtigkeit
    00:00 -9°C° 0,1 mm 2 m/S 615 mmHg 92%
    01:00 -10°C° 0,1 mm 2 m/S 615 mmHg 92%
    02:00 -10°C° 0 mm 2 m/S 615 mmHg 92%
    03:00 -12°C° 0 mm 2 m/S 614 mmHg 91%
    04:00 -13°C° 0 mm 2 m/S 614 mmHg 91%
    05:00 -13°C° 0 mm 2 m/S 614 mmHg 88%
    06:00 -13°C° 0 mm 2 m/S 614 mmHg 85%
    07:00 -13°C° 0 mm 2 m/S 614 mmHg 82%
    08:00 -10°C° 0 mm 2 m/S 615 mmHg 77%
    09:00 -7°C° 0 mm 2 m/S 616 mmHg 73%
    10:00 -5°C° 0 mm 2 m/S 617 mmHg 68%
    11:00 -2°C° 0 mm 1 m/S 617 mmHg 67%
    12:00 -1°C° 0 mm 1 m/S 617 mmHg 66%
    13:00 +1°C° 0 mm 1 m/S 617 mmHg 65%
    14:00 0°C° 0,1 mm 1 m/S 617 mmHg 70%
    15:00 -1°C° 0,1 mm 1 m/S 616 mmHg 75%
    16:00 -1°C° 0,1 mm 1 m/S 616 mmHg 79%
    17:00 -2°C° 0,2 mm 1 m/S 616 mmHg 81%
    18:00 -4°C° 0,2 mm 2 m/S 616 mmHg 83%
    19:00 -5°C° 0,2 mm 2 m/S 616 mmHg 84%
    20:00 -5°C° 0 mm 2 m/S 615 mmHg 83%
    21:00 -5°C° 0 mm 2 m/S 615 mmHg 82%
    22:00 -5°C° 0 mm 2 m/S 615 mmHg 81%
    23:00 -5°C° 0 mm 2 m/S 615 mmHg 80%

    übermorgen, 21 November, Dienstag

    Zeit Temperatur Niederschläge Wind Luftdruck Luftfeuchtigkeit
    00:00 -5°C° 0 mm 2 m/S 615 mmHg 80%
    01:00 -4°C° 0 mm 2 m/S 615 mmHg 79%
    02:00 -4°C° 0,1 mm 2 m/S 615 mmHg 80%
    03:00 -4°C° 0,1 mm 2 m/S 615 mmHg 80%
    04:00 -4°C° 0,1 mm 2 m/S 615 mmHg 81%
    05:00 -4°C° 0,3 mm 2 m/S 615 mmHg 83%
    06:00 -3°C° 0,3 mm 2 m/S 615 mmHg 86%
    07:00 -3°C° 0,3 mm 2 m/S 616 mmHg 88%
    08:00 -2°C° 0,2 mm 2 m/S 616 mmHg 88%
    09:00 -1°C° 0,2 mm 2 m/S 616 mmHg 88%
    10:00 +1°C° 0,2 mm 2 m/S 617 mmHg 88%
    11:00 +1°C° 0,1 mm 2 m/S 617 mmHg 89%
    12:00 +2°C° 0,1 mm 2 m/S 617 mmHg 90%
    13:00 +3°C° 0,1 mm 2 m/S 617 mmHg 91%
    14:00 +2°C° 0 mm 2 m/S 617 mmHg 90%
    15:00 +2°C° 0 mm 2 m/S 616 mmHg 90%
    16:00 +1°C° 0 mm 2 m/S 616 mmHg 90%
    17:00 -1°C° 0,1 mm 2 m/S 616 mmHg 89%
    18:00 -1°C° 0,1 mm 2 m/S 616 mmHg 89%
    19:00 0°C° 0,1 mm 1 m/S 616 mmHg 88%
    20:00 0°C° 0,1 mm 1 m/S 616 mmHg 87%
    21:00 0°C° 0,1 mm 1 m/S 616 mmHg 86%
    22:00 0°C° 0,1 mm 1 m/S 617 mmHg 85%
    23:00 0°C° 0 mm 1 m/S 616 mmHg 85%

    22 November, Mittwoch

    Zeit Temperatur Niederschläge Wind Luftdruck Luftfeuchtigkeit
    00:00 0°C° 0 mm 1 m/S 616 mmHg 84%
    01:00 -1°C° 0 mm 1 m/S 616 mmHg 83%
    02:00 -1°C° 0 mm 1 m/S 616 mmHg 82%
    03:00 -1°C° 0 mm 1 m/S 616 mmHg 82%
    04:00 -1°C° 0 mm 1 m/S 616 mmHg 81%
    05:00 -1°C° 0 mm 1 m/S 616 mmHg 80%
    06:00 -1°C° 0 mm 1 m/S 616 mmHg 80%
    07:00 -1°C° 0 mm 1 m/S 616 mmHg 79%
    08:00 0°C° 0 mm 1 m/S 616 mmHg 80%
    09:00 +2°C° 0 mm 1 m/S 617 mmHg 81%
    10:00 +4°C° 0 mm 1 m/S 618 mmHg 82%
    11:00 +4°C° 0 mm 1 m/S 618 mmHg 85%
    12:00 +5°C° 0 mm 1 m/S 618 mmHg 87%
    13:00 +6°C° 0 mm 1 m/S 618 mmHg 90%
    14:00 +5°C° 0 mm 1 m/S 617 mmHg 87%
    15:00 +4°C° 0 mm 1 m/S 617 mmHg 85%
    16:00 +2°C° 0 mm 2 m/S 617 mmHg 82%
    17:00 +1°C° 0 mm 2 m/S 617 mmHg 81%
    18:00 -1°C° 0 mm 2 m/S 617 mmHg 80%
    19:00 -2°C° 0 mm 2 m/S 616 mmHg 79%
    20:00 -2°C° 0 mm 2 m/S 617 mmHg 78%
    21:00 -2°C° 0 mm 2 m/S 617 mmHg 77%
    22:00 -2°C° 0 mm 2 m/S 617 mmHg 76%
    23:00 -2°C° 0 mm 2 m/S 617 mmHg 75%

    23 November, Donnerstag

    Zeit Temperatur Niederschläge Wind Luftdruck Luftfeuchtigkeit
    00:00 -2°C° 0 mm 2 m/S 617 mmHg 74%
    01:00 -2°C° 0 mm 2 m/S 617 mmHg 74%
    02:00 -3°C° 0 mm 2 m/S 617 mmHg 72%
    03:00 -3°C° 0 mm 2 m/S 617 mmHg 71%
    04:00 -3°C° 0 mm 2 m/S 617 mmHg 70%
    05:00 -1°C° 0 mm 1 m/S 617 mmHg 69%
    06:00 -1°C° 0 mm 1 m/S 618 mmHg 68%
    07:00 -1°C° 0 mm 1 m/S 618 mmHg 67%
    08:00 +1°C° 0 mm 1 m/S 619 mmHg 69%
    09:00 +2°C° 0 mm 1 m/S 620 mmHg 71%
    10:00 +4°C° 0 mm 1 m/S 620 mmHg 73%
    11:00 +5°C° 0 mm 1 m/S 620 mmHg 77%
    12:00 +6°C° 0 mm 1 m/S 621 mmHg 80%
    13:00 +7°C° 0 mm 1 m/S 621 mmHg 84%
    14:00 +5°C° 0 mm 1 m/S 620 mmHg 81%
    15:00 +4°C° 0 mm 1 m/S 620 mmHg 77%
    16:00 +3°C° 0 mm 1 m/S 619 mmHg 73%
    17:00 +2°C° 0 mm 1 m/S 619 mmHg 73%
    18:00 +1°C° 0 mm 1 m/S 619 mmHg 72%
    19:00 -2°C° 0 mm 2 m/S 619 mmHg 71%
    20:00 -2°C° 0 mm 2 m/S 619 mmHg 70%
    21:00 -2°C° 0 mm 2 m/S 619 mmHg 69%
    22:00 -3°C° 0 mm 2 m/S 619 mmHg 68%
    23:00 -3°C° 0 mm 2 m/S 619 mmHg 67%

    24 November, Freitag

    Zeit Temperatur Niederschläge Wind Luftdruck Luftfeuchtigkeit
    00:00 -3°C° 0 mm 2 m/S 619 mmHg 66%
    01:00 -3°C° 0 mm 2 m/S 619 mmHg 66%
    02:00 -3°C° 0 mm 2 m/S 619 mmHg 65%
    03:00 -3°C° 0 mm 2 m/S 619 mmHg 65%
    04:00 -3°C° 0 mm 2 m/S 618 mmHg 65%
    05:00 -4°C° 0 mm 2 m/S 618 mmHg 65%
    06:00 -4°C° 0 mm 2 m/S 618 mmHg 65%
    07:00 -4°C° 0 mm 2 m/S 618 mmHg 64%
    08:00 -2°C° 0 mm 2 m/S 619 mmHg 66%
    09:00 -1°C° 0 mm 2 m/S 619 mmHg 68%
    10:00 +2°C° 0 mm 2 m/S 620 mmHg 69%
    11:00 +3°C° 0 mm 2 m/S 620 mmHg 71%
    12:00 +4°C° 0 mm 2 m/S 620 mmHg 74%
    13:00 +6°C° 0 mm 1 m/S 620 mmHg 76%
    14:00 +4°C° 0 mm 2 m/S 619 mmHg 75%
    15:00 +2°C° 0 mm 2 m/S 619 mmHg 75%
    16:00 +1°C° 0 mm 2 m/S 618 mmHg 74%
    17:00 -1°C° 0 mm 2 m/S 618 mmHg 73%
    18:00 -2°C° 0 mm 2 m/S 618 mmHg 73%
    19:00 -3°C° 0 mm 2 m/S 618 mmHg 72%
    20:00 -3°C° 0 mm 2 m/S 618 mmHg 71%
    21:00 -3°C° 0 mm 2 m/S 618 mmHg 69%
    22:00 -3°C° 0 mm 2 m/S 618 mmHg 68%
    23:00 -3°C° 0 mm 2 m/S 618 mmHg 67%
    Mehr zeigen